Regional Weather Roundup
Issued by NWS

Home | Current Version | Previous Version | Text Only | Print | Product List | Glossary On
Versions: 1 2 3 4 5 6 7 8 9 10 11 12 13 14 15 16 17 18 19 20 21 22 23 24 25 26 27 28 29 30 31 32 33 34 35 36 37 38 39 40 41 42 43 44 45 46 47 48 49 50
000
ASUS46 KSTO 232015
RWRCA

NORTHERN AND CENTRAL CA REGIONAL WEATHER ROUNDUP
NATIONAL WEATHER SERVICE SACRAMENTO CA
100 PM PDT TUE MAY 23 2017

NOTE: FAIR INDICATES FEW OR NO CLOUDS BELOW 12,000 FEET WITH NO
SIGNIFICANT WEATHER AND/OR OBSTRUCTIONS TO VISIBILITY.

CAZ001-003-232100-
NORTHWEST AREA

CITY           SKY/WX    TMP DP  RH WIND       PRES   REMARKS
CRESCENT CITY  SUNNY     60  56  86 S7        29.99R
UKIAH          SUNNY     90  54  29 E3        29.91F
$$

CAZ006-505>513-232100-
BAY AREA

CITY           SKY/WX    TMP DP  RH WIND       PRES   REMARKS
SANTA ROSA     SUNNY     75  55  49 S9        29.93F
SAN RAFAEL     N/A       68  MM  MM MISG
NAPA           SUNNY     72  57  59 SW7       29.93F
CONCORD        SUNNY     81  54  39 NW12      29.91F
OAKLAND CITY   N/A      MM  MM  MM MISG
OAKLAND        MOSUNNY   68  54  60 W13       29.95F
SAN FRAN CITY  N/A       60  MM  70 MISG
SAN FRAN ARPT  MOSUNNY   67  52  58 NW16      29.95F
LIVERMORE      SUNNY     86  57  37 SW7       29.90F
HAYWARD        SUNNY     70  52  52 W9        29.94F
REDWOOD CITY   N/A       69  MM  64 MISG
MOFFETT ARPT   SUNNY     70  58  65 NW7       29.95F
SAN JOSE ARPT  SUNNY     75  59  57 VRB5      29.93F
$$
CAZ034-037-514>518-232100-
CENTRAL COAST

CITY           SKY/WX    TMP DP  RH WIND       PRES   REMARKS
WATSONVILLE    SUNNY     62  56  80 SW12      29.99R
SALINAS        SUNNY     66  53  63 W16       29.97R
MONTEREY       MOSUNNY   61  53  75 SW14G22   29.99R
SAN LUIS OBISP SUNNY     69  54  58 NW12      30.01R
SANTA MARIA    MOSUNNY   65  53  65 NW13      30.03R
$$
CAZ015-016-232100-
NORTHERN SACRAMENTO VALLEY

CITY           SKY/WX    TMP DP  RH WIND       PRES   REMARKS
REDDING        SUNNY     96  49  20 W5        29.87F HX  93
RED BLUFF      SUNNY     95  53  24 SE9       29.89S HX  92
OROVILLE       SUNNY     92  53  26 CALM      29.90F HAZE
$$
CAZ016>018-232100-
SOUTHERN SACRAMENTO VALLEY

CITY           SKY/WX    TMP DP  RH WIND       PRES   REMARKS
AUBURN         SUNNY     88  57  35 W7        29.97F
BEALE AFB      SUNNY     91  56  29 N3        29.87F
LINCOLN        FAIR      91  50  24 CALM      29.88F
MARYSVILLE       N/A     93  57  29 W6        29.88F HX  91
SAC INTL ARPT  MOSUNNY   90  58  33 W3        29.88F
MATHER AIRPORT SUNNY     91  54  27 SW3       29.89
DOWNTOWN SAC   N/A       93  MM  MM MISG
SAC EXEC ARPT  SUNNY     91  60  35 SW5       29.89F HX  90
VACAVILLE      SUNNY     92  60  34 S6        29.90F HX  91
TRAVIS AFB     SUNNY     85  57  38 SW9       29.88F
$$
CAZ019>021-232100-
SAN JOAQUIN VALLEY

CITY           SKY/WX    TMP DP  RH WIND       PRES   REMARKS
STOCKTON       SUNNY     94  56  27 VRB3      29.88F HX  92
MODESTO        SUNNY     94  55  26 NW8       29.87F HX  92
MERCED         SUNNY     93  51  23 NW7       29.86F HX  90
LEMOORE        MOSUNNY   96  48  19 NW8       29.87F HX  92
FRESNO         SUNNY     96  53  23 E3        29.87F HX  93
HANFORD        SUNNY     95  54  25 VRB6      29.87F HX  93
PORTERVILLE      N/A     94  55  26 W7        29.88F HX  92
BAKERSFIELD    SUNNY     95  50  21 VRB3      29.87F HX  92
$$
CAZ011-012-071-232100-
NORTHERN MOUNTAINS

CITY           SKY/WX    TMP DP  RH WIND       PRES   REMARKS
YREKA          SUNNY     85  44  23 SW3       30.03F
MOUNT SHASTA   SUNNY     90  43  19 CALM      30.05F
ALTURAS        SUNNY     84  34  16 VRB3      30.11F
$$
CAZ011-012-071-232100-
SIERRA NEVADA MTNS

CITY           SKY/WX    TMP DP  RH WIND       PRES   REMARKS
BLUE CANYON    SUNNY     78  47  33 W8        30.21S
TRUCKEE        MOSUNNY   75  37  25 SE9       30.25S
TAHOE VLY ARPT SUNNY     72  45  37 MISG      30.25F
MAMMOTH LAKES  FAIR      75  25  16 S7        30.31F
$$




USA.gov is the U.S. government's official web portal to all federal, state and local government web resources and services.